TimeEDT,TemperatureF,Dew PointF,Humidity,Sea Level PressureIn,VisibilityMPH,Wind Direction,Wind SpeedMPH,Gust SpeedMPH,PrecipitationIn,Events,Conditions,WindDirDegrees,DateUTC
12:53 AM,60.1,57.0,90,30.06,10.0,WSW,3.5,-,N/A,,Scattered Clouds,250,2012-09-21 04:53:00
1:53 AM,62.1,57.0,84,30.06,10.0,Calm,Calm,-,N/A,,Clear,0,2012-09-21 05:53:00
2:53 AM,59.0,57.0,93,30.06,8.0,Calm,Calm,-,N/A,,Clear,0,2012-09-21 06:53:00
3:53 AM,57.9,55.9,93,30.05,6.0,Calm,Calm,-,N/A,,Clear,0,2012-09-21 07:53:00
4:53 AM,57.9,55.9,93,30.04,4.0,Calm,Calm,-,N/A,,Clear,0,2012-09-21 08:53:00
5:53 AM,55.9,55.0,97,30.05,4.0,Calm,Calm,-,N/A,,Clear,0,2012-09-21 09:53:00
6:11 AM,55.4,53.6,94,30.10,2.5,Calm,Calm,-,N/A,,Scattered Clouds,0,2012-09-21 10:11:00
6:14 AM,55.4,53.6,94,30.10,1.2,Calm,Calm,-,N/A,,Mostly Cloudy,0,2012-09-21 10:14:00
6:23 AM,55.4,55.4,100,30.10,0.5,Calm,Calm,-,N/A,Fog,Fog,0,2012-09-21 10:23:00
6:53 AM,57.0,55.9,96,30.05,0.2,Calm,Calm,-,N/A,Fog,Fog,0,2012-09-21 10:53:00
7:53 AM,57.0,55.9,96,30.06,0.2,Calm,Calm,-,N/A,Fog,Fog,0,2012-09-21 11:53:00
8:12 AM,57.2,57.2,100,30.10,1.0,WNW,3.5,-,N/A,,Mist,290,2012-09-21 12:12:00
8:19 AM,57.2,57.2,100,30.10,3.0,Calm,Calm,-,N/A,,Mostly Cloudy,0,2012-09-21 12:19:00
8:39 AM,57.2,57.2,100,30.10,1.8,Calm,Calm,-,N/A,,Mostly Cloudy,0,2012-09-21 12:39:00
8:45 AM,57.2,57.2,100,30.10,0.2,NW,3.5,-,N/A,Fog,Fog,310,2012-09-21 12:45:00
8:53 AM,57.9,57.0,97,30.06,0.2,Calm,Calm,-,N/A,Fog,Fog,0,2012-09-21 12:53:00
9:31 AM,60.8,59.0,94,30.10,1.0,Calm,Calm,-,N/A,,Mist,0,2012-09-21 13:31:00
9:36 AM,60.8,59.0,94,30.10,3.0,Calm,Calm,-,N/A,,Overcast,0,2012-09-21 13:36:00
9:53 AM,62.1,61.0,96,30.06,7.0,Calm,Calm,-,N/A,,Scattered Clouds,0,2012-09-21 13:53:00
10:53 AM,69.1,62.1,78,30.05,10.0,Calm,Calm,-,N/A,,Clear,0,2012-09-21 14:53:00
11:53 AM,72.0,62.1,71,30.04,10.0,Variable,3.5,-,N/A,,Clear,0,2012-09-21 15:53:00
12:53 PM,75.0,59.0,57,30.02,10.0,Calm,Calm,-,N/A,,Clear,0,2012-09-21 16:53:00
1:53 PM,78.1,59.0,52,30.00,10.0,South,3.5,-,N/A,,Scattered Clouds,190,2012-09-21 17:53:00
2:53 PM,79.0,55.0,44,29.99,10.0,SW,5.8,-,N/A,,Clear,220,2012-09-21 18:53:00
3:53 PM,78.1,57.0,48,29.97,10.0,SSW,8.1,-,N/A,,Scattered Clouds,200,2012-09-21 19:53:00
4:53 PM,78.1,57.0,48,29.96,10.0,South,8.1,-,N/A,,Clear,190,2012-09-21 20:53:00
5:53 PM,77.0,55.9,48,29.96,10.0,Variable,4.6,-,N/A,,Clear,0,2012-09-21 21:53:00
6:53 PM,73.9,59.0,59,29.96,10.0,Calm,Calm,-,N/A,,Clear,0,2012-09-21 22:53:00
7:53 PM,71.1,60.1,68,29.95,10.0,Calm,Calm,-,N/A,,Clear,0,2012-09-21 23:53:00
8:53 PM,66.9,61.0,81,29.96,10.0,Calm,Calm,-,N/A,,Clear,0,2012-09-22 00:53:00
9:53 PM,66.9,61.0,81,29.96,10.0,Calm,Calm,-,N/A,,Clear,0,2012-09-22 01:53:00
10:53 PM,66.9,61.0,81,29.96,10.0,SSW,5.8,-,N/A,,Clear,200,2012-09-22 02:53:00
11:53 PM,66.9,61.0,81,29.97,10.0,SSW,6.9,-,N/A,,Clear,200,2012-09-22 03:53:00